DW0417 Weather Reports


time (UTC)temp
F
wind
direction
speed
knots
gust
knots
rain 1hr
in
rain 24hr
in
rain mn
in
humidity
%
barometer
mb
20260508154547 57 307 2.6 7.0 0.00 0.00 0.00 67 1015.7
20260508153552 58 270 5.2 10.4 0.00 0.00 0.00 64 1015.6
20260508152552 57 296 5.2 8.7 0.00 0.00 0.00 65 1015.6
20260508151109 56 309 5.2 9.6 0.00 0.00 0.00 67 1015.7
20260508150109 55 338 5.2 9.6 0.00 0.00 0.00 68 1015.5
20260508145108 55 331 5.2 8.7 0.00 0.00 0.00 69 1015.5
20260508144107 55 325 5.2 7.8 0.00 0.00 0.00 69 1015.6
20260508143107 55 335 6.1 10.4 0.00 0.00 0.00 70 1015.8
20260508142107 54 25 5.2 9.6 0.00 0.00 0.00 74 1015.7
20260508141107 52 325 4.3 6.1 0.00 0.00 0.00 79 1015.9
20260508140546 51 322 3.5 5.2 0.00 0.00 0.00 80 1016.0
20260508135107 49 28 3.5 6.1 0.00 0.00 0.00 82 1016.2
20260508134109 49 355 2.6 4.3 0.00 0.00 0.00 84 1016.3
20260508133107 47 330 1.7 3.5 0.00 0.00 0.00 85 1016.5
20260508131548 44 33 3.5 5.2 0.00 0.00 0.00 88 1016.3
20260508130107 44 24 3.5 5.2 0.00 0.00 0.00 88 1016.5
20260508125107 44 25 1.7 2.6 0.00 0.00 0.00 89 1016.5
20260508124108 44 25 0.9 2.6 0.00 0.00 0.00 89 1016.5
20260508123102 44 86 0.9 2.6 0.00 0.00 0.00 89 1016.6
20260508122101 44 86 1.7 5.2 0.00 0.00 0.00 89 1016.5
20260508121102 44 86 0.9 2.6 0.00 0.00 0.00 90 1016.6
20260508115102 42 118 0.0 0.9 0.00 0.00 0.00 89 1016.0
20260508114100 42 118 1.7 3.5 0.00 0.00 0.00 90 1015.6
20260508113102 42 79 2.6 5.2 0.00 0.00 0.00 90 1015.3
20260508112102 41 82 0.9 4.3 0.00 0.00 0.00 90 1015.3
20260508111103 42 81 0.9 3.5 0.00 0.00 0.00 90 1015.3
20260508110056 42 130 0.0 0.9 0.00 0.00 0.00 90 1015.5
20260508105055 42 130 0.9 3.5 0.00 0.00 0.00 89 1015.3
20260508104541 42 159 0.9 1.7 0.00 0.00 0.00 89 1015.2
20260508103531 42 185 0.0 2.6 0.00 0.00 0.00 89 1015.0
20260508102056 42 200 0.0 0.0 0.00 0.00 0.00 88 1014.9
20260508101056 42 201 0.0 1.7 0.00 0.00 0.00 88 1014.8
20260508100055 43 75 0.0 0.9 0.00 0.00 0.00 87 1014.4
20260508095055 43 75 0.0 0.9 0.00 0.00 0.00 87 1014.2
20260508094539 43 75 1.7 2.6 0.00 0.00 0.00 87 1014.2
20260508093050 44 102 0.9 1.7 0.00 0.00 0.00 87 1014.2
20260508092050 44 51 0.9 1.7 0.00 0.00 0.00 87 1014.2
20260508091048 44 54 0.9 1.7 0.00 0.00 0.00 88 1014.2
20260508090049 43 54 0.9 3.5 0.00 0.00 0.00 88 1014.3
20260508085047 44 78 0.0 1.7 0.00 0.00 0.00 88 1014.5
20260508084047 44 78 0.9 2.6 0.00 0.00 0.00 89 1014.6
20260508083047 44 92 0.9 1.7 0.00 0.00 0.00 89 1014.9
20260508082047 44 89 0.9 3.5 0.00 0.00 0.00 89 1014.8
20260508081048 44 170 0.0 0.0 0.00 0.00 0.00 89 1014.8
20260508080047 45 170 0.0 0.0 0.00 0.01 0.00 88 1015.2
20260508080025 45 171 0.0 0.9 0.00 0.01 0.00 88 1015.2
20260508074046 46 170 0.9 1.7 0.00 0.01 0.00 89 1015.2
20260508073046 46 122 0.9 1.7 0.00 0.01 0.00 88 1015.3
20260508072529 46 207 0.0 1.7 0.00 0.01 0.00 88 1015.2
20260508071047 47 39 0.0 0.9 0.00 0.01 0.00 87 1015.1
20260508070046 48 39 0.0 0.9 0.00 0.01 0.00 85 1015.1
20260508065046 49 39 0.0 1.7 0.00 0.01 0.00 84 1015.0
20260508064046 49 39 0.0 0.9 0.00 0.01 0.00 83 1014.8
20260508063046 50 39 1.7 1.7 0.00 0.01 0.00 82 1014.6
20260508062527 50 39 0.0 1.7 0.00 0.01 0.00 81 1014.5
20260508062013 51 311 0.0 2.6 0.00 0.01 0.00 81 1014.4
20260508060047 52 336 0.9 2.6 0.00 0.01 0.00 75 1014.2
20260508055046 52 340 0.9 3.5 0.00 0.01 0.01 74 1014.3
20260508054530 53 278 1.7 5.2 0.00 0.01 0.01 75 1014.4
20260508053525 54 87 1.7 4.3 0.00 0.01 0.01 72 1015.1
20260508052042 54 175 3.5 7.8 0.00 0.01 0.01 69 1015.3
20260508051042 55 117 1.7 6.1 0.00 0.01 0.01 67 1014.9
20260508050040 54 129 1.7 2.6 0.00 0.01 0.01 67 1014.3
20260508045041 54 129 0.9 1.7 0.00 0.01 0.01 68 1014.2
20260508044038 55 211 0.0 0.0 0.00 0.01 0.01 66 1014.1
20260508043039 55 211 0.0 3.5 0.00 0.01 0.01 66 1013.9
20260508042040 55 283 3.5 6.1 0.00 0.01 0.01 65 1013.7
20260508041038 56 302 1.7 4.3 0.00 0.01 0.01 63 1013.8
20260508040040 57 249 0.9 3.5 0.00 0.01 0.01 61 1014.1
20260508035040 58 198 1.7 7.8 0.00 0.01 0.01 59 1014.4
20260508034516 59 199 1.7 6.1 0.00 0.01 0.01 54 1014.4
20260508033038 59 252 1.7 6.1 0.00 0.01 0.01 50 1013.4
20260508032040 60 300 1.7 4.3 0.00 0.01 0.01 49 1013.1
20260508031039 60 198 2.6 7.0 0.00 0.01 0.01 48 1013.2
20260508030037 61 68 5.2 8.7 0.00 0.01 0.01 45 1012.9
20260508025037 61 105 3.5 7.0 0.00 0.01 0.01 45 1012.8
20260508024037 61 82 3.5 6.1 0.00 0.01 0.01 44 1012.7
20260508023036 62 58 2.6 6.1 0.00 0.01 0.01 45 1012.7
20260508022036 61 56 2.6 7.8 0.00 0.01 0.01 46 1012.5
20260508021037 60 304 4.3 7.0 0.00 0.01 0.01 49 1012.5
20260508020038 60 64 3.5 5.2 0.00 0.01 0.01 51 1012.4
20260508015031 62 316 2.6 4.3 0.00 0.01 0.01 48 1012.1
20260508014031 63 338 2.6 5.2 0.00 0.01 0.01 45 1011.6
20260508013031 64 285 2.6 3.5 0.00 0.01 0.01 42 1011.6
20260508012515 65 100 0.0 1.7 0.00 0.01 0.01 39 1011.6
20260508011031 66 167 0.0 2.6 0.00 0.01 0.01 38 1011.7
20260508010030 65 197 2.6 11.3 0.00 0.01 0.01 38 1011.5
20260508005031 66 305 0.9 6.1 0.00 0.01 0.01 35 1011.4
20260508004031 67 71 0.9 2.6 0.00 0.01 0.01 33 1011.1
20260508003031 68 72 0.0 1.7 0.00 0.02 0.01 31 1010.8
20260508002026 69 72 2.6 6.1 0.00 0.02 0.01 29 1010.8
20260508001025 69 332 1.7 6.1 0.00 0.02 0.01 29 1010.7
20260508000025 69 77 2.6 7.0 0.00 0.03 0.01 30 1010.9
20260507235024 70 72 3.5 9.6 0.00 0.03 0.01 27 1010.8
20260507234513 70 193 3.5 10.4 0.00 0.03 0.01 28 1010.7
20260507233024 71 109 3.5 7.8 0.00 0.04 0.01 28 1010.7
20260507232024 71 227 0.9 5.2 0.00 0.05 0.01 27 1010.7
20260507231024 70 202 3.5 7.8 0.00 0.05 0.01 27 1010.7
20260507230024 70 160 7.0 18.2 0.00 0.06 0.01 29 1010.8
20260507225505 70 60 6.1 13.0 0.00 0.07 0.01 28 1010.8
20260507224019 71 85 4.3 11.3 0.00 0.09 0.01 29 1011.0
20260507223507 70 43 5.2 11.3 0.00 0.10 0.01 27 1010.9
20260507222019 70 348 5.2 9.6 0.00 0.12 0.01 30 1011.1
20260507221018 70 189 1.7 6.1 0.00 0.14 0.01 30 1011.1
20260507220019 68 60 2.6 10.4 0.00 0.16 0.01 30 1011.3
20260507215017 68 117 4.3 10.4 0.00 0.19 0.01 33 1011.6
20260507214454 67 121 1.7 6.1 0.00 0.21 0.01 32 1011.8
20260507213018 66 127 3.5 7.0 0.00 0.22 0.01 32 1012.2
20260507212455 66 141 4.3 8.7 0.00 0.24 0.01 33 1012.3
20260507211447 66 65 5.2 8.7 0.00 0.26 0.01 32 1012.5
20260507210453 67 145 5.2 11.3 0.00 0.28 0.01 32 1012.8
20260507205011 65 119 5.2 10.4 0.00 0.30 0.01 33 1012.9
20260507204013 65 105 3.5 11.3 0.00 0.33 0.01 34 1013.0
20260507203448 65 110 3.5 7.8 0.00 0.36 0.01 33 1013.1
20260507202448 65 60 6.1 11.3 0.00 0.42 0.01 32 1013.1
20260507201004 66 110 5.2 12.2 0.00 0.47 0.01 33 1013.2
20260507200004 67 115 5.2 10.4 0.00 0.54 0.01 34 1013.2
20260507195451 66 125 8.7 16.5 0.00 0.57 0.01 33 1013.5
20260507194004 66 96 8.7 16.5 0.00 0.60 0.01 33 1013.6
20260507193005 66 103 9.6 18.2 0.00 0.63 0.01 33 1013.7
20260507192005 66 130 6.1 17.4 0.00 0.65 0.01 34 1013.8
20260507191003 65 85 2.6 9.6 0.00 0.66 0.01 34 1014.1
20260507190435 64 72 4.3 8.7 0.00 0.68 0.01 36 1014.3
20260507185449 64 70 3.5 9.6 0.00 0.68 0.01 34 1014.2
20260507184440 63 69 2.6 7.0 0.00 0.70 0.01 34 1014.3
20260507182957 62 80 1.7 6.1 0.00 0.71 0.01 39 1014.4
20260507181958 61 120 5.2 13.9 0.00 0.72 0.01 38 1014.5
20260507180957 60 107 11.3 17.4 0.00 0.73 0.01 37 1014.5
20260507175957 60 104 11.3 19.1 0.00 0.74 0.01 35 1014.4
20260507174957 60 98 9.6 18.2 0.00 0.74 0.01 39 1014.3
20260507173957 59 100 7.8 19.1 0.00 0.74 0.01 40 1014.4
20260507172956 59 77 6.1 10.4 0.00 0.75 0.01 43 1014.6
20260507171951 59 100 10.4 15.6 0.00 0.75 0.01 41 1014.6
20260507171426 58 83 10.4 18.2 0.00 0.75 0.01 43 1014.6
20260507165950 58 91 10.4 17.4 0.00 0.75 0.01 42 1014.9
20260507164951 57 88 10.4 19.1 0.00 0.76 0.01 42 1014.8
20260507163951 57 98 7.0 17.4 0.00 0.76 0.01 41 1014.6
20260507162951 56 83 4.3 10.4 0.00 0.76 0.01 41 1014.6
20260507161950 56 124 8.7 17.4 0.00 0.76 0.01 42 1014.8
20260507160950 56 95 8.7 14.8 0.00 0.76 0.01 42 1014.8
20260507155950 55 72 12.2 18.2 0.00 0.76 0.01 45 1014.9
20260507155423 56 60 8.7 17.4 0.00 0.77 0.01 44 1014.9